Location: Go?cza
(50.3372°N, 19.9313°E)
Time: 02:11:10
(UTC+00:00)

Okean 2 Rocket - Pass Details

Date: 23 May 2024
Orbit: 614 x 637 km, 82.5° (Epoch: 18 June)

Event Time Altitude Azimuth Distance (km) Brightness Sun altitude
Rises 01:09:09 0° 353° (N) 2,898 7.3 -11.5°
Reaches altitude 10° 01:11:26 10° 359° (N) 1,989 6.5 -11.3°
Maximum altitude 01:15:44 52° 76° (ENE) 777 3.9 -10.9°
Drops below altitude 10° 01:20:01 10° 153° (SSE) 1,981 5.4 -10.4°
Sets 01:22:17 0° 158° (SSE) 2,885 6.2 -10.2°
